Cotulla, TX

4:48 PM CST on November 15, 2019 (GMT -0600)
Cotulla-La Salle County

Weather History for KCOT - August, 2019

Change the Weather History Date:

Sunday, August 11, 2019

  Actual Average Record
Temperature  
Mean Temperature 92 °F -  
Max Temperature 107 °F 97 °F 107 °F (2016)
Min Temperature 78 °F 73 °F 73 °F (2000)
Cooling Degree Days 28    
Growing Degree Days 42 (Base 50)    
Moisture  
Dew Point 70 °F    
Average Humidity 57    
Maximum Humidity 93    
Minimum Humidity 20    
Precipitation  
Precipitation 0.00 in - - ()
Sea Level Pressure  
Sea Level Pressure 29.90 in    
Wind  
Wind Speed 11 mph (SE)    
Max Wind Speed 21 mph    
Max Gust Speed 30 mph    
Visibility 10 miles    
Events      
Averages and records for this station are not official NWS values.
T = Trace of Precipitation, MM = Missing Value Source: NWS Daily Summary

Daily Weather History Graph

Daily Weather History Graph

Search for Another Location

Airport or City:

Astronomy

Aug. 11, 2019 Rise Set
Actual Time 7:04 AM CDT 8:19 PM CDT
Civil Twilight 6:39 AM CDT 8:44 PM CDT
Nautical Twilight 6:09 AM CDT 9:14 PM CDT
Astronomical Twilight 5:38 AM CDT 9:44 PM CDT
Moon 5:49 PM CDT (8/11) 3:36 AM CDT (8/11)
Length of Visible Light 14h 05m
Length of Day
13h 15m
Waxing Gibbous, 87% of the Moon is Illuminated
Aug 11
Waxing Gibbous
Aug 15
Full
Aug 23
Last Quarter
Aug 30
New
Sep 5
First Quarter

Hourly Weather History & Observations

Time (CDT) Temp. Heat Index Dew Point Humidity Pressure Visibility Wind Dir Wind Speed Gust Speed Precip Events Conditions
12:53 AM 84.9 °F 89.4 °F 70.0 °F 61% 29.92 in 10.0 mi SSE 13.8 mph - N/A   Clear
1:53 AM 82.9 °F 87.5 °F 71.1 °F 67% 29.92 in 10.0 mi SSE 11.5 mph - N/A   Clear
2:53 AM 81.0 °F 85.8 °F 73.0 °F 77% 29.92 in 10.0 mi SSE 10.4 mph - N/A   Clear
3:53 AM 80.1 °F 85.1 °F 75.0 °F 85% 29.91 in 10.0 mi SSE 9.2 mph - N/A   Clear
4:53 AM 79.0 °F - 75.0 °F 88% 29.91 in 10.0 mi ESE 5.8 mph - N/A   Clear
5:53 AM 79.0 °F - 75.0 °F 88% 29.92 in 10.0 mi ESE 4.6 mph - N/A   Clear
6:53 AM 78.1 °F - 75.9 °F 93% 29.93 in 10.0 mi ESE 8.1 mph - N/A   Clear
7:53 AM 79.0 °F - 75.9 °F 90% 29.94 in 9.0 mi East 8.1 mph - N/A   Mostly Cloudy
8:53 AM 82.0 °F 90.2 °F 77.0 °F 85% 29.95 in 10.0 mi SE 12.7 mph - N/A   Mostly Cloudy
9:33 AM 87.1 °F 97.3 °F 75.9 °F 69% 29.98 in 10.0 mi SE 11.5 mph - N/A   Mostly Cloudy
9:40 AM 87.1 °F 97.3 °F 75.9 °F 69% 29.98 in 10.0 mi SSE 10.4 mph - N/A   Scattered Clouds
9:53 AM 87.1 °F 96.3 °F 75.0 °F 67% 29.96 in 10.0 mi SE 12.7 mph - N/A   Partly Cloudy
10:53 AM 91.0 °F 99.3 °F 73.0 °F 55% 29.97 in 10.0 mi South 9.2 mph - N/A   Clear
11:53 AM 95.0 °F 102.5 °F 71.1 °F 46% 29.96 in 10.0 mi ESE 12.7 mph 16.1 mph N/A   Clear
12:53 PM 98.1 °F 102.4 °F 66.9 °F 36% 29.94 in 10.0 mi South 6.9 mph - N/A   Clear
1:53 PM 100.9 °F 104.6 °F 64.9 °F 31% 29.90 in 10.0 mi South 9.2 mph 17.3 mph N/A   Clear
2:53 PM 102.9 °F 104.2 °F 61.0 °F 25% 29.87 in 10.0 mi SE 9.2 mph - N/A   Clear
3:53 PM 106.0 °F 107.1 °F 60.1 °F 22% 29.84 in 10.0 mi SE 10.4 mph 18.4 mph N/A   Scattered Clouds
4:53 PM 107.1 °F 107.4 °F 57.9 °F 20% 29.82 in 10.0 mi SE 12.7 mph - N/A   Partly Cloudy
5:53 PM 105.1 °F 105.0 °F 57.9 °F 21% 29.81 in 10.0 mi SSE 8.1 mph 19.6 mph N/A   Clear
6:53 PM 105.1 °F 105.7 °F 59.0 °F 22% 29.80 in 10.0 mi SSE 15.0 mph 21.9 mph N/A   Scattered Clouds
7:53 PM 102.0 °F 102.7 °F 60.1 °F 25% 29.80 in 10.0 mi ESE 16.1 mph - N/A   Mostly Cloudy
8:53 PM 96.1 °F 104.9 °F 72.0 °F 46% 29.82 in 10.0 mi SE 20.7 mph 27.6 mph N/A   Clear
9:53 PM 91.9 °F 101.3 °F 73.9 °F 55% 29.84 in 10.0 mi SE 20.7 mph 29.9 mph N/A   Clear
10:53 PM 89.1 °F 98.0 °F 73.9 °F 61% 29.87 in 10.0 mi SE 17.3 mph 25.3 mph N/A   Clear
11:53 PM 87.1 °F 95.4 °F 73.9 °F 65% 29.89 in 10.0 mi SE 18.4 mph - N/A   Clear